• In Germany
  • List of Countries
  • For 7 days
  • Water Temperature
  • Satellite Maps
  • Weather Map
  • Weather Widgets
  • user-avatar
    Login

    Hourly Weather Kaprun

    Today, 21 July, Friday

    Time Temperature Precipitation Wind Pressure Humidity
    00:00 +9°C° 0.2 mm 1 mps 599 mmHg 95%
    01:00 +8°C° 0 mm 1 mps 598 mmHg 92%
    02:00 +7°C° 0 mm 1 mps 598 mmHg 91%
    03:00 +7°C° 0 mm 1 mps 598 mmHg 90%
    04:00 +6°C° 0 mm 1 mps 597 mmHg 89%
    05:00 +8°C° 0 mm 1 mps 598 mmHg 86%
    06:00 +10°C° 0 mm 1 mps 599 mmHg 82%
    07:00 +11°C° 0 mm 1 mps 600 mmHg 79%
    08:00 +14°C° 0.1 mm 1 mps 601 mmHg 69%
    09:00 +16°C° 0.1 mm 1 mps 602 mmHg 60%
    10:00 +18°C° 0.1 mm 2 mps 602 mmHg 50%
    11:00 +18°C° 0.4 mm 2 mps 602 mmHg 50%
    12:00 +19°C° 0.4 mm 2 mps 602 mmHg 51%
    13:00 +20°C° 0.4 mm 2 mps 602 mmHg 51%
    14:00 +19°C° 0.5 mm 2 mps 602 mmHg 53%
    15:00 +19°C° 0.5 mm 2 mps 602 mmHg 55%
    16:00 +19°C° 0.5 mm 2 mps 601 mmHg 57%
    17:00 +17°C° 0.7 mm 2 mps 601 mmHg 65%
    18:00 +16°C° 0.7 mm 2 mps 600 mmHg 74%
    19:00 +14°C° 0.7 mm 2 mps 599 mmHg 82%
    20:00 +13°C° 0.3 mm 2 mps 599 mmHg 84%
    21:00 +12°C° 0.3 mm 2 mps 599 mmHg 85%
    22:00 +10°C° 0.3 mm 2 mps 599 mmHg 86%
    23:00 +10°C° 0 mm 2 mps 598 mmHg 85%

    Tomorrow, 22 July, Saturday

    Time Temperature Precipitation Wind Pressure Humidity
    00:00 +9°C° 0 mm 2 mps 598 mmHg 84%
    01:00 +9°C° 0 mm 2 mps 598 mmHg 83%
    02:00 +8°C° 0 mm 2 mps 598 mmHg 82%
    03:00 +8°C° 0 mm 2 mps 598 mmHg 81%
    04:00 +8°C° 0 mm 1 mps 597 mmHg 80%
    05:00 +10°C° 0 mm 1 mps 598 mmHg 77%
    06:00 +11°C° 0 mm 1 mps 599 mmHg 73%
    07:00 +13°C° 0 mm 1 mps 600 mmHg 70%
    08:00 +15°C° 0 mm 1 mps 601 mmHg 64%
    09:00 +18°C° 0 mm 1 mps 602 mmHg 57%
    10:00 +20°C° 0 mm 1 mps 603 mmHg 51%
    11:00 +20°C° 0.2 mm 1 mps 602 mmHg 53%
    12:00 +20°C° 0.2 mm 1 mps 602 mmHg 54%
    13:00 +20°C° 0.2 mm 1 mps 602 mmHg 56%
    14:00 +19°C° 1.1 mm 1 mps 602 mmHg 61%
    15:00 +19°C° 1.1 mm 1 mps 602 mmHg 67%
    16:00 +18°C° 1.1 mm 1 mps 601 mmHg 73%
    17:00 +16°C° 1.6 mm 1 mps 601 mmHg 79%
    18:00 +15°C° 1.6 mm 1 mps 601 mmHg 84%
    19:00 +13°C° 1.6 mm 0 mps 600 mmHg 90%
    20:00 +11°C° 0.6 mm 0 mps 600 mmHg 91%
    21:00 +10°C° 0.6 mm 0 mps 600 mmHg 93%
    22:00 +10°C° 0.6 mm 1 mps 600 mmHg 95%
    23:00 +10°C° 0.2 mm 1 mps 599 mmHg 95%

    Day after tomorrow, 23 July, Sunday

    Time Temperature Precipitation Wind Pressure Humidity
    00:00 +10°C° 0.2 mm 1 mps 599 mmHg 95%
    01:00 +9°C° 0.2 mm 1 mps 599 mmHg 96%
    02:00 +9°C° 0.4 mm 1 mps 599 mmHg 96%
    03:00 +9°C° 0.4 mm 1 mps 599 mmHg 96%
    04:00 +8°C° 0.4 mm 1 mps 598 mmHg 96%
    05:00 +10°C° 0.3 mm 1 mps 599 mmHg 93%
    06:00 +11°C° 0.3 mm 1 mps 600 mmHg 89%
    07:00 +13°C° 0.3 mm 1 mps 601 mmHg 86%
    08:00 +14°C° 0.2 mm 1 mps 601 mmHg 79%
    09:00 +15°C° 0.2 mm 1 mps 602 mmHg 72%
    10:00 +17°C° 0.2 mm 2 mps 602 mmHg 65%
    11:00 +16°C° 0.5 mm 2 mps 602 mmHg 69%
    12:00 +15°C° 0.5 mm 1 mps 602 mmHg 74%
    13:00 +15°C° 0.5 mm 1 mps 601 mmHg 79%
    14:00 +14°C° 0.8 mm 1 mps 601 mmHg 82%
    15:00 +14°C° 0.8 mm 1 mps 601 mmHg 85%
    16:00 +14°C° 0.8 mm 1 mps 600 mmHg 88%
    17:00 +13°C° 0.9 mm 1 mps 600 mmHg 91%
    18:00 +12°C° 0.9 mm 1 mps 600 mmHg 94%
    19:00 +11°C° 0.9 mm 1 mps 599 mmHg 97%
    20:00 +11°C° 1.9 mm 1 mps 599 mmHg 97%
    21:00 +11°C° 1.9 mm 1 mps 599 mmHg 97%
    22:00 +10°C° 1.9 mm 1 mps 599 mmHg 98%
    23:00 +10°C° 0.9 mm 1 mps 599 mmHg 98%

    24 July, Monday

    Time Temperature Precipitation Wind Pressure Humidity
    00:00 +10°C° 0.9 mm 1 mps 599 mmHg 98%
    01:00 +10°C° 0.9 mm 1 mps 598 mmHg 98%
    02:00 +9°C° 0.5 mm 1 mps 598 mmHg 98%
    03:00 +9°C° 0.5 mm 1 mps 597 mmHg 98%
    04:00 +9°C° 0.5 mm 1 mps 597 mmHg 98%
    05:00 +9°C° 1.1 mm 1 mps 597 mmHg 98%
    06:00 +9°C° 1.1 mm 1 mps 596 mmHg 97%
    07:00 +10°C° 1.1 mm 1 mps 596 mmHg 97%
    08:00 +10°C° 1.1 mm 1 mps 596 mmHg 95%
    09:00 +10°C° 1.1 mm 1 mps 596 mmHg 93%
    10:00 +10°C° 1.1 mm 2 mps 596 mmHg 90%
    11:00 +10°C° 1.3 mm 2 mps 595 mmHg 91%
    12:00 +10°C° 1.3 mm 2 mps 595 mmHg 93%
    13:00 +10°C° 1.3 mm 2 mps 595 mmHg 94%
    14:00 +8°C° 5.1 mm 2 mps 594 mmHg 95%
    15:00 +7°C° 5.1 mm 2 mps 594 mmHg 96%
    16:00 +5°C° 5.1 mm 3 mps 593 mmHg 98%
    17:00 +4°C° 1.7 mm 3 mps 593 mmHg 97%
    18:00 +5°C° 1.7 mm 2 mps 593 mmHg 96%
    19:00 +4°C° 1.7 mm 2 mps 593 mmHg 96%
    20:00 +4°C° 0.2 mm 2 mps 593 mmHg 96%
    21:00 +4°C° 0.2 mm 2 mps 593 mmHg 95%
    22:00 +3°C° 0.2 mm 2 mps 593 mmHg 95%
    23:00 +3°C° 0 mm 2 mps 593 mmHg 95%

    25 July, Tuesday

    Time Temperature Precipitation Wind Pressure Humidity
    00:00 +3°C° 0 mm 2 mps 593 mmHg 95%
    01:00 +2°C° 0 mm 2 mps 593 mmHg 95%
    02:00 +2°C° 0 mm 2 mps 592 mmHg 95%
    03:00 +2°C° 0 mm 2 mps 592 mmHg 95%
    04:00 +1°C° 0 mm 2 mps 592 mmHg 95%
    05:00 +2°C° 0.1 mm 2 mps 592 mmHg 93%
    06:00 +3°C° 0.1 mm 2 mps 593 mmHg 91%
    07:00 +4°C° 0.1 mm 2 mps 593 mmHg 89%
    08:00 +5°C° 0.3 mm 2 mps 593 mmHg 85%
    09:00 +7°C° 0.3 mm 1 mps 594 mmHg 80%
    10:00 +8°C° 0.3 mm 1 mps 594 mmHg 76%
    11:00 +8°C° 0.6 mm 2 mps 594 mmHg 76%
    12:00 +8°C° 0.6 mm 2 mps 594 mmHg 77%
    13:00 +8°C° 0.6 mm 2 mps 594 mmHg 77%
    14:00 +8°C° 0.8 mm 2 mps 594 mmHg 77%
    15:00 +8°C° 0.8 mm 2 mps 594 mmHg 77%
    16:00 +8°C° 0.8 mm 2 mps 595 mmHg 77%
    17:00 +7°C° 0.4 mm 2 mps 594 mmHg 81%
    18:00 +7°C° 0.4 mm 2 mps 594 mmHg 85%
    19:00 +6°C° 0.4 mm 2 mps 594 mmHg 89%
    20:00 +5°C° 0.3 mm 2 mps 594 mmHg 91%
    21:00 +4°C° 0.3 mm 2 mps 594 mmHg 93%
    22:00 +4°C° 0.3 mm 2 mps 593 mmHg 95%
    23:00 +3°C° 0.4 mm 2 mps 593 mmHg 95%

    26 July, Wednesday

    Time Temperature Precipitation Wind Pressure Humidity
    00:00 +3°C° 0.4 mm 2 mps 593 mmHg 95%
    01:00 +3°C° 0.4 mm 2 mps 593 mmHg 94%
    02:00 +3°C° 0.7 mm 2 mps 593 mmHg 95%
    03:00 +3°C° 0.7 mm 2 mps 593 mmHg 95%
    04:00 +3°C° 0.7 mm 2 mps 593 mmHg 95%
    05:00 +3°C° 0.9 mm 2 mps 594 mmHg 94%
    06:00 +4°C° 0.9 mm 2 mps 594 mmHg 94%
    07:00 +4°C° 0.9 mm 2 mps 594 mmHg 93%
    08:00 +6°C° 0.5 mm 2 mps 595 mmHg 87%
    09:00 +7°C° 0.5 mm 2 mps 596 mmHg 81%
    10:00 +9°C° 0.5 mm 2 mps 597 mmHg 75%
    11:00 +10°C° 0.1 mm 2 mps 597 mmHg 68%
    12:00 +13°C° 0.1 mm 2 mps 598 mmHg 60%
    13:00 +14°C° 0.1 mm 2 mps 598 mmHg 53%
    14:00 +14°C° 0.1 mm 2 mps 598 mmHg 53%
    15:00 +14°C° 0.1 mm 2 mps 598 mmHg 54%
    16:00 +14°C° 0.1 mm 2 mps 598 mmHg 55%
    17:00 +13°C° 0.1 mm 2 mps 598 mmHg 63%
    18:00 +10°C° 0.1 mm 2 mps 598 mmHg 71%
    19:00 +10°C° 0.1 mm 1 mps 597 mmHg 80%
    20:00 +8°C° 0 mm 1 mps 597 mmHg 84%
    21:00 +7°C° 0 mm 1 mps 597 mmHg 89%
    22:00 +5°C° 0 mm 1 mps 596 mmHg 93%
    23:00 +5°C° 0 mm 1 mps 596 mmHg 93%
    Show more